Погода Ремонтное

Погода Ремонтное : погода сейчас, прогноз погоды и архив. Всё, что Вы хотите узнать о погоде Ремонтное!

Поиск расширенной информации на нашем сайте:

Другие новости

Новости СМИ2

Главная страница сайта

Новости сайта

03.07.2017

Напоминаем, что на нашем специализированном сайте Метеоцентр.Азия вы можете получить высокодетализированные автоматические прогнозы погоды по пунктам России, СНГ и мира в авиационном формате (включающие направление и скорость ветра, видимость, явления погоды, количество и форму облачности, нижнюю и верхнюю границу облачности).


Погода Ремонтное - сегодня

Время (UTC), дата Ветер
(°,м/с) 
Видим.   Явления Облачность Т
(°С)
Тd
(°С)
f(%) Тe
(°С)
Pmin
(гПа)
dP
(гПа)
Po
(мм)
O2
(г/м3)
Тmin Tmax R s Состояние
почвы
21 14.02.18 130 (ЮВ) 4000 м  дымка  10/10 300 м кучево-дожд. 
[Cb cap]
-3.9 -5.4 89 -7  1029  0.1  761  312           
00 15.02.18 110 (В) 4000 м  дымка  10/10 300 м кучево-дожд. 
[Cb cap]
-3.8 -5.2 90 -7  1029.1  0.1  761  312           
03 15.02.18 110 (В) 4000 м  дымка  10/10 300 м кучево-дожд. 
[Cb cap]
-4 -5.4 90 -8  1030.3  1.2  762  312  -4.1         
06 15.02.18 100 (В) 4{10}  4000 м  дымка  10/10 300 м кучево-дожд. 
[Cb cap]
-4.1 -5.6 89 -7  1031.9  1.6  764  313  -4.4         
09 15.02.18 110 (В) 5{10}  4000 м  дымка  10/10 300 м 
[Sc]
-3.1 -5.7 82 -7  1032.9  764  312           
12 15.02.18 110 (В) 10 км    10/6 300 м средняя, верхняя 
[Sc|Ac trans|Ci fib]
-1.5 -5.1 76 -5  1032.7  -0.1  764  310           
15 15.02.18 110 (В) 5{10}  10 км    10/10 300 м кучево-дожд. 
[Cb cap]
-3.2 -6.3 79 -7  1033.2  0.5  765  312    -1.3       
18 15.02.18 110 (В) 10 км    3/3 300 м верхняя 
[Sc diur, vesp|Ci fib]
-3.2 -6.3 79 -7  1033.6  0.4  765  313           
21 15.02.18 110 (В) 5{11}  10 км    3/0 верхняя 
[Ci fib]
-5.2 -8.1 80 -9  1033.8  765  315           
00 16.02.18 130 (ЮВ) 4000 м  дымка  10/10 300 м 
[St]
-7.3 -9.5 84 -11  1034.3  0.5  765  318           
03 16.02.18 100 (В) 4000 м  дымка  8/8 300 м верхняя 
[Sc|Ci fib]
-7.2 -9 87 -12  1034.1  -0.3  765  318  -7.4         
06 16.02.18 110 (В) 5{11}  4000 м  дымка  3/1 600 м верхняя 
[Sc|Ci fib]
-7 -9.4 83 -11  1035  0.9  766  318  -7.6         
09 16.02.18 110 (В) 6{10}  10 км    4/0 средняя, верхняя 
[Ac trans|Ci fib]
-3 -6.6 76 -7  1033.8  -1  765  312           
12 16.02.18 110 (В) 5{11}  10 км    9/9 600 м 
[Sc]
+0.4 -3.6 74 -3  1032.5  -1.1  764  308           
15 16.02.18 110 (В) 5{11}  10 км    10/10 600 м 
[Sc]
+1.5 -3.2 71 -1  1031.8  -0.6  764  306    +1.5       
18 16.02.18 110 (В) 5{10}  10 км    10/10 300 м кучево-дожд. 
[Cb cap]
+0.3 -5.5 65 -3  1031.2  -0.7  763  308           
21 16.02.18 110 (В) 6-10{13}  10 км    10/10 300 м кучево-дожд. 
[Cb cap]
-1.8 -5.9 74 -6  1030.8  -0.5  763  310           
00 17.02.18 110 (В) 6-12{11}  10 км    10/10 300 м 
[Sc]
-3 -6 80 -7  1029.6  -1.3  762  311           
03 17.02.18 110 (В) 10 км    10/10 300 м 
[Sc]
-3.6 -6.2 82 -7  1029.1  -0.4  762  312  -3.6      неравномерный
сухой снег
100% 
06 17.02.18 110 (В) 4000 м  дымка  9/0 средняя, верхняя 
[Ac trans|Ci fib]
-3.7 -6.5 81 -7  1028.5  -0.7  761  312  -4.2         
09 17.02.18 110 (В) 5-10{10}  4000 м  дымка  10/8 600 м верхняя 
[Sc|Ci]
-2.4 -5.4 80 -6  1027.2  -1.2  760  310           
12 17.02.18 100 (В) 5{10}  10 км    10/9 600 м верхняя 
[Sc|Ci]
-0.5 -4 77 -4  1025.4  -1.7  759  307           
15 17.02.18 100 (В) 5{10}  10 км    10/10 300 м 
[Sc]
-0.9 -4.8 75 -4  1025  -0.4  759  307    -0.4       
18 17.02.18 120 (ЮВ) 10 км    10/10 300 м 
[Sc]
-0.3 -3 82 -3  1024.3  -0.6  758  306           
21 17.02.18 110 (В) 6{10}  10 км    10/10 300 м кучево-дожд. 
[Cb cap]
-1 -4.4 78 -5  1022.8  -1.5  757  307           
Время (UTC), дата Ветер
(°,м/с) 
Видим.   Явления Облачность Т
(°С)
Тd
(°С)
f(%) Тe
(°С)
Pmin
(гПа)
dP
(гПа)
Po
(мм)
O2
(г/м3)
Тmin Tmax R s Состояние
почвы

Для получения пояснительной информации подведите курсор к названию столбца.

ПОГОДА Ремонтное - архив

Всё, что Вы хотите узнать о погоде Ремонтное - удобно и подробно!

Выберите нужную дату (начиная с 1 января 2015* года) и нажмите кнопку "Найти".
Будут отображены архивные сводки погоды по пункту Ремонтное, начиная с указанной даты.


Отображать данные в формате CSV (для использования в таблицах Excel)


Внимание! Наш архив погоды предназначен исключительно для личного некоммерческого использования в познавательных целях. Если Вам необходимы официальные справки о состоянии погоды (для производственных, юридических, коммерческих и т.п. целей), обращайтесь в органы Росгидромета.

*Примечание: данная дата относится к архиву по метеостанциям СССР (Россия, СНГ, Балтия).
Архив по метеостанциям Зарубежной Европы и Азии (кроме Китая) хранится 10 дней, по другим регионам земного шара (Китай, Африка, Америка, Австралия, Океания) - 1 день.

Ремонтное - район местоположения метеостанции


Название, широта, долгота, высота метеостанции:
Ремонтное 46.6°ш. 43.7°д. 106 м над ур. моря [Российская Федерация]

Дополнительная информация

В oтличие oт бoльшинства пoгoдных сайтoв мы публикуем пoдрoбную метеoинфoрмацию в детальнoм прoфессиoнальнoм фoрмате.

Характеристики температуры и влажнoсти вoздуха измеряются на высoте 2 м в тени вдали oт зданий и деревьев.
Скoрoсть ветра измеряется на высoте 10 м (на урoвне рoста челoвека скoрoсть ветра ниже в 1.5-2 раза). Если метеoстанция нахoдится в гoрoде или в лесу, тo скoрoсть ветра занижена на 2-4 м/с пo сравнению с oткрытым местoм. Скoрoсть ветра над акватoриями крупных рек и oзёр, а также на вершинах хoлмoв на 2-5 м/с выше, чем в oбычных услoвиях.
Атмoсфернoе давление в разных тoчках местнoсти мoжет значительнo oтличаться oт давления на метеoстанции, в зависимoсти oт услoвий рельефа (при пoдъёме на 10 м давление пoнижается примернo на 1 мм рт.ст.).